Regional Weather Roundup
Issued by NWS

Home | Current Version | Previous Version | Text Only | Print | Product List | Glossary Off
Versions: 1 2 3 4 5 6 7 8 9 10 11 12 13 14 15 16 17 18 19 20 21 22 23 24 25 26 27 28 29 30 31 32 33 34 35 36 37 38 39 40 41 42 43 44 45 46 47 48 49 50

000
ASUS43 KDTX 110510
RWRMI
MICHIGAN HOURLY REGIONAL WEATHER ROUNDUP
NATIONAL WEATHER SERVICE DETROIT/PONTIAC MI
ISSUED BY NATIONAL WEATHER SERVICE GRAND RAPIDS MI
1200 AM EST MON DEC 11 2017

NOTE: "FAIR" INDICATES FEW OR NO CLOUDS BELOW 12,000 FEET WITH NO
SIGNIFICANT WEATHER AND/OR OBSTRUCTION TO VISIBILITY.

MIZ047>049-052>055-059>063-066>070-074>076-081>083-110600-
SOUTHEAST LOWER MICHIGAN

CITY           SKY/WX    TMP DP  RH WIND       PRES   REMARKS
ADRIAN         CLEAR     25  19  78 NW8       30.01R WCI  16
ALMA           CLOUDY    24  20  85 NW7       30.02R WCI  16
ANN ARBOR      CLOUDY    26  21  81 W10       29.99R WCI  16
BAD AXE        CLOUDY    23  17  76 NW12G17   29.98R WCI  12
DETROIT CITY   CLOUDY    28  23  81 NW9       29.98R WCI  19
DETROIT        CLOUDY    29  23  78 NW10      29.99R WCI  20
FLINT          CLOUDY    25  21  85 NW9       29.99R WCI  15
GROSSE ILE     CLOUDY    29  24  84 NW10      29.97R WCI  19
HILLSDALE      CLOUDY    27  21  80 NW7       29.98R WCI  19
HOWELL         CLOUDY    25  22  91 NW7       29.99R WCI  17

CITY           SKY/WX    TMP DP  RH WIND       PRES   REMARKS
JACKSON        CLOUDY    27  19  72 NW7       29.99R WCI  19
LANSING        CLOUDY    25  21  85 NW8       30.02R WCI  16
MASON          CLOUDY    27  20  74 NW6       30.00R WCI  20
MONROE         CLOUDY    29  23  78 NW9       29.99R WCI  20
MT. CLEMENS    CLOUDY    25  25 100 W6        29.96R WCI  18
PONTIAC        CLOUDY    25  23  92 NW14      29.96R WCI  13
PORT HOPE        N/A     23  13  65 NW20G28   29.97R WCI   8
PORT HURON     LGT SNOW  25  21  86 W5        29.96R WCI  19
TRI CITIES     CLOUDY    22  17  81 NW10      30.01R WCI  11
YPSILANTI      CLOUDY    30  23  75 NW12      29.99R WCI  20
$$
MIZ043>046-050>051-056>058-064>065-071>073-077>080-110600-
SOUTHWEST LOWER MICHIGAN

CITY           SKY/WX    TMP DP  RH WIND       PRES   REMARKS
BATTLE CREEK   CLOUDY    27  21  78 W6        30.02R WCI  20
BENTON HARBOR  CLOUDY    31  19  61 NW7       30.04S WCI  24
BIG RAPIDS     CLOUDY    22  13  68 N3        30.00S
COLDWATER      CLOUDY    28  22  80 W3        30.01R
HOLLAND        CLOUDY    30  20  66 NW3       30.03S
GRAND RAPIDS   FLURRIES  26  21  81 N9        30.02R WCI  17
KALAMAZOO      CLOUDY    28  21  75 W5        30.02R WCI  23
MARSHALL       CLOUDY    26  20  79 W3        30.00R
MOUNT PLEASANT PTCLDY    22  13  65 NW5       30.00S WCI  16
MUSKEGON       CLOUDY    27  19  72 NE8       30.03S WCI  19
STURGIS        CLOUDY    27  22  82 CALM      30.02R
$$
MIZ016>042-110600-
NORTHERN LOWER MICHIGAN

CITY           SKY/WX    TMP DP  RH WIND       PRES   REMARKS
ALPENA         CLOUDY    16   8  71 W6        30.00R WCI   7
BEAVER ISLAND  CLOUDY    20   9  64 N7        30.00F WCI  11
BELLAIRE       CLOUDY    19  12  74 NE3       30.02S
CADILLAC       CLOUDY    18  11  73 NW3       29.96S
CHARLEVOIX     CLOUDY    20  10  65 NW6       30.03F WCI  13
GAYLORD        CLOUDY    13   7  77 CALM      29.96R
HOUGHTON LAKE  CLOUDY    17   8  67 NW8       29.98S WCI   7
MANISTEE       CLOUDY    23  12  62 NW5       30.01F WCI  17
OSCODA         PTCLDY    14   4  64 NW7       30.01R WCI   4
PELLSTON       CLOUDY    17   8  67 NW6       30.00S WCI   9
TRAVERSE CITY  CLOUDY    22  14  71 W7        30.00F WCI  13
LUDINGTON      CLOUDY    26  16  65 N7        30.01F WCI  18
$$
MIZ007>008-015-110600-
EASTERN UPPER MICHIGAN

CITY           SKY/WX    TMP DP  RH WIND       PRES   REMARKS
KINROSS        FLURRIES   7   0  73 E3        29.99S
MACKINAC ISLAN CLOUDY    17   6  62 W10       29.99S WCI   5
NEWBERRY       CLOUDY    14  12  92 CALM      29.97F
S. S. MARIE    CLOUDY     8  -1  66 CALM      30.00R
$$
MIZ004>006-011>014-085-110600-
CENTRAL UPPER MICHIGAN

CITY           SKY/WX    TMP DP  RH WIND       PRES   REMARKS
MANISTIQUE     CLOUDY    15   7  69 W7        30.00S WCI   5
ESCANABA       CLEAR      7   3  84 W6        30.04S WCI  -3
MENOMINEE      PTCLDY    10   2  69 CALM      30.05S
SAWYER-GWINN   CLOUDY    12   5  73 NW9       29.97S WCI  -1
$$
MIZ001>003-009>011-084-110600-
WESTERN UPPER MICHIGAN

CITY           SKY/WX    TMP DP  RH WIND       PRES   REMARKS
IRON MOUNTAIN  CLOUDY    13   9  84 CALM      29.97F
HOUGHTON       CLOUDY    12   5  73 S3        29.95F
COPPER HARBOR    N/A     15   6  67 CALM      29.99S
IRONWOOD       CLOUDY    13   9  84 S7        29.96F WCI   3
$$

ABBREVIATIONS USED IN REMARKS
   TC - TEMPERATURE IN CELSIUS
  WCI - WIND CHILL INDEX
   HX - HEAT INDEX
  VSB - VISIBILITY




USA.gov is the U.S. government's official web portal to all federal, state and local government web resources and services.